Location: Clyde
(45.1830°S, 169.3170°E)
Time: 07:29:49
(UTC+12:00)

USA 234 - Pass Details

Date: 14 May 2021
Orbit: 1102 x 1105 km, 123.0° (Epoch: 18 April)

Event Time Altitude Azimuth Distance (km) Brightness Sun altitude
Exits shadow 18:02:40 - 125° (SE) 3,278 5.1 -7.0°
Reaches altitude 10° 18:03:27 10° 124° (SE) 2,991 4.9 -7.1°
Maximum altitude 18:09:58 59° 45° (NE) 1,273 3.5 -8.2°
Drops below altitude 10° 18:16:26 10° 326° (NW) 2,968 6.4 -9.3°
Sets 18:18:57 0° 322° (NW) 3,921 7.2 -9.7°
